This demonstration page uses our WeatherBlox Daily Observations layout. Learn more.

Left ArrowRight Arrow

Hourly Observations for December 1, 2021

Temp ( °F °C ) Dew Point ( °F °C ) Humidity (%) Winds ( mph kmh ) Pressure ( in mb ) Visibility ( mi km ) Precip ( " mm )
12:15 am 00:15 Clear 32 0 30 -1 93 93 SSW 5 7 30.06 1018 10 16 0.00 0.00
12:35 am 00:35 Clear 32 0 30 -1 93 93 SSW 6 9 30.07 1018 10 16 0.00 0.00
12:55 am 00:55 Clear 32 0 28 -2 87 87 S 7 11 30.06 1018 10 16 0.00 0.00
1:15 am 01:15 Clear 32 0 28 -2 87 87 SSW 5 7 30.07 1018 10 16 0.00 0.00
1:35 am 01:35 Clear 32 0 30 -1 93 93 Calm 30.08 1019 10 16 0.00 0.00
1:55 am 01:55 Clear 34 1 30 -1 87 87 WNW 5 7 30.08 1019 10 16 0.00 0.00
2:15 am 02:15 Clear 30 -1 28 -2 93 93 W 6 9 30.10 1019 10 16 0.00 0.00
2:35 am 02:35 Clear 32 0 30 -1 93 93 WSW 6 9 30.11 1020 10 16 0.00 0.00
2:55 am 02:55 Clear 32 0 30 -1 93 93 WNW 8 13 30.12 1020 10 16 0.00 0.00
3:15 am 03:15 Clear 34 1 30 -1 87 87 Calm 30.13 1020 10 16 0.00 0.00
3:35 am 03:35 Clear 32 0 28 -2 87 87 WSW 5 7 30.14 1021 10 16 0.00 0.00
3:55 am 03:55 Clear 34 1 30 -1 87 87 W 3 6 30.14 1021 10 16 0.00 0.00
4:15 am 04:15 Clear 36 2 32 0 87 87 N 3 6 30.15 1021 10 16 0.00 0.00
4:35 am 04:35 Clear 37 3 32 0 81 81 NNE 3 6 30.15 1021 10 16 0.00 0.00
4:55 am 04:55 Clear 43 6 32 0 66 66 N 6 9 30.16 1021 10 16 0.00 0.00
5:15 am 05:15 Clear 34 1 32 0 93 93 NW 3 6 30.17 1022 10 16 0.00 0.00
5:35 am 05:35 Clear 37 3 32 0 81 81 WNW 6 9 30.18 1022 10 16 0.00 0.00
5:55 am 05:55 Clear 43 6 34 1 71 71 NNW 12 19 30.17 1022 10 16 0.00 0.00
6:15 am 06:15 Clear 43 6 34 1 71 71 NW 8 13 30.18 1022 10 16 0.00 0.00
6:35 am 06:35 Clear 36 2 32 0 87 87 W 3 6 30.20 1023 10 16 0.00 0.00
6:55 am 06:55 Clear 36 2 32 0 87 87 W 6 9 30.21 1023 10 16 0.00 0.00
7:15 am 07:15 Sunny 39 4 32 0 75 75 Calm 30.22 1023 10 16 0.00 0.00
7:35 am 07:35 Sunny 41 5 32 0 70 70 NNW 7 11 30.21 1023 10 16 0.00 0.00
7:55 am 07:55 Sunny 43 6 34 1 71 71 NNW 7 11 30.21 1023 10 16 0.00 0.00
8:15 am 08:15 Sunny 43 6 34 1 71 71 NNW 6 9 30.22 1023 10 16 0.00 0.00
8:35 am 08:35 Sunny 45 7 34 1 66 66 Calm 30.21 1023 10 16 0.00 0.00
8:55 am 08:55 Sunny 46 8 34 1 62 62 Calm 30.22 1023 10 16 0.00 0.00
9:15 am 09:15 Sunny 46 8 36 2 66 66 NNW 5 7 30.22 1023 10 16 0.00 0.00
9:35 am 09:35 Sunny 48 9 36 2 62 62 NNW 8 13 30.24 1024 10 16 0.00 0.00
9:55 am 09:55 Sunny 48 9 36 2 62 62 NNW 6 9 30.25 1024 10 16 0.00 0.00
10:15 am 10:15 Sunny 50 10 36 2 58 58 NNW 5 7 30.24 1024 10 16 0.00 0.00
10:35 am 10:35 Sunny 50 10 36 2 58 58 Calm 30.24 1024 10 16 0.00 0.00
10:55 am 10:55 Sunny 52 11 36 2 54 54 Calm 30.22 1024 10 16 0.00 0.00
11:15 am 11:15 Sunny 52 11 34 1 50 50 Calm 30.21 1023 10 16 0.00 0.00
11:35 am 11:35 Sunny 54 12 36 2 51 51 Calm 30.20 1023 10 16 0.00 0.00
11:55 am 11:55 Sunny 54 12 34 1 47 47 SSW 7 11 30.18 1022 10 16 0.00 0.00
12:15 pm 12:15 Sunny 54 12 34 1 47 47 SSE 6 9 30.18 1022 10 16 0.00 0.00
12:35 pm 12:35 Sunny 55 13 36 2 47 47 Calm 30.17 1022 10 16 0.00 0.00
12:55 pm 12:55 Sunny 55 13 34 1 44 44 W 5 7 30.16 1021 10 16 0.00 0.00
1:15 pm 13:15 Sunny 55 13 36 2 47 47 Calm 30.15 1021 10 16 0.00 0.00
1:35 pm 13:35 Partly Cloudy 57 14 36 2 44 44 Calm 30.14 1021 10 16 0.00 0.00
1:55 pm 13:55 Sunny 57 14 34 1 41 41 SW 8 13 30.13 1020 10 16 0.00 0.00
2:15 pm 14:15 Partly Cloudy 59 15 34 1 39 39 SSW 9 15 30.13 1020 10 16 0.00 0.00
2:35 pm 14:35 Partly Cloudy 57 14 34 1 41 41 S 8 13 30.13 1020 10 16 0.00 0.00
2:55 pm 14:55 Partly Cloudy 55 13 34 1 44 44 S 13 20 30.11 1020 10 16 0.00 0.00
3:15 pm 15:15 Partly Cloudy 55 13 34 1 44 44 S 9 15 30.11 1020 10 16 0.00 0.00
3:35 pm 15:35 Mostly Cloudy 55 13 34 1 44 44 S 8 13 30.11 1020 10 16 0.00 0.00
3:55 pm 15:55 Cloudy 54 12 34 1 47 47 S 6 9 30.10 1019 10 16 0.00 0.00
4:15 pm 16:15 Cloudy 54 12 34 1 47 47 S 6 9 30.09 1019 10 16 0.00 0.00
4:35 pm 16:35 Cloudy 54 12 36 2 51 51 S 6 9 30.10 1019 10 16 0.00 0.00
4:55 pm 16:55 Cloudy 54 12 36 2 51 51 S 6 9 30.10 1019 10 16 0.00 0.00
5:15 pm 17:15 Cloudy 54 12 34 1 47 47 S 8 13 30.11 1020 10 16 0.00 0.00
5:35 pm 17:35 Cloudy with Light Rain 54 12 37 3 54 54 S 8 13 30.11 1020 10 16 0.00 0.00
5:55 pm 17:55 Cloudy 52 11 36 2 54 54 S 6 9 30.11 1020 10 16 0.00 0.00
6:15 pm 18:15 Cloudy 52 11 36 2 54 54 SSE 5 7 30.10 1019 10 16 0.00 0.00
6:35 pm 18:35 Cloudy 52 11 36 2 54 54 SSE 3 6 30.10 1019 10 16 0.00 0.00
6:55 pm 18:55 Cloudy 52 11 36 2 54 54 S 10 17 30.11 1020 10 16 0.00 0.00
7:15 pm 19:15 Cloudy 52 11 36 2 54 54 S 12 19 30.10 1019 10 16 0.00 0.00
7:35 pm 19:35 Cloudy 52 11 36 2 54 54 S 10 17 30.10 1019 10 16 0.00 0.00
7:55 pm 19:55 Cloudy 52 11 36 2 54 54 S 10 17 30.09 1019 10 16 0.00 0.00
8:15 pm 20:15 Cloudy 52 11 36 2 54 54 S 12 19 30.08 1019 10 16 0.00 0.00
8:35 pm 20:35 Cloudy 52 11 36 2 54 54 S 9 15 30.08 1019 10 16 0.00 0.00
8:55 pm 20:55 Cloudy 52 11 36 2 54 54 S 8 13 30.07 1018 10 16 0.00 0.00
9:15 pm 21:15 Cloudy with Light Rain 50 10 39 4 67 67 S 6 9 30.08 1018 10 16 0.00 0.00
9:35 pm 21:35 Cloudy with Drizzle 50 10 41 5 71 71 S 8 13 30.07 1018 10 16 0.00 0.00
9:55 pm 21:55 Cloudy 50 10 41 5 71 71 S 6 9 30.06 1018 10 16 0.00 0.00
10:15 pm 22:15 Mostly Cloudy with Light Rain 46 8 41 5 82 82 SSW 5 7 30.05 1018 10 16 0.00 0.00
10:35 pm 22:35 Mostly Cloudy 46 8 41 5 82 82 S 5 7 30.04 1017 10 16 0.00 0.00
10:55 pm 22:55 Cloudy 46 8 39 4 76 76 S 3 6 30.04 1017 10 16 0.00 0.00
11:15 pm 23:15 Cloudy 48 9 39 4 71 71 S 5 7 30.03 1017 10 16 0.00 0.00
11:35 pm 23:35 Cloudy 48 9 37 3 66 66 S 9 15 30.02 1017 10 16 0.00 0.00
11:55 pm 23:55 Mostly Cloudy 46 8 37 3 71 71 S 7 11 30.01 1016 10 16 0.00 0.00

Powered by AerisWeather